TimeCDT,TemperatureF,Dew PointF,Humidity,Sea Level PressureIn,VisibilityMPH,Wind Direction,Wind SpeedMPH,Gust SpeedMPH,PrecipitationIn,Events,Conditions,WindDirDegrees,DateUTC
12:15 AM,50.0,37.4,62,29.78,10.0,South,10.4,-,N/A,,Overcast,190,2012-10-15 05:15:00
12:35 AM,50.0,39.2,66,29.77,10.0,SSW,11.5,-,N/A,,Overcast,200,2012-10-15 05:35:00
12:55 AM,50.0,39.2,66,29.76,10.0,South,10.4,-,N/A,,Overcast,190,2012-10-15 05:55:00
1:15 AM,51.8,39.2,62,29.75,10.0,South,9.2,-,N/A,,Overcast,190,2012-10-15 06:15:00
1:35 AM,51.8,39.2,62,29.74,10.0,South,10.4,-,N/A,,Overcast,190,2012-10-15 06:35:00
1:55 AM,51.8,39.2,62,29.73,10.0,South,10.4,-,N/A,,Scattered Clouds,190,2012-10-15 06:55:00
2:15 AM,53.6,39.2,58,29.72,10.0,South,11.5,-,N/A,,Partly Cloudy,180,2012-10-15 07:15:00
2:35 AM,53.6,39.2,58,29.72,10.0,South,11.5,-,N/A,,Scattered Clouds,190,2012-10-15 07:35:00
2:55 AM,53.6,39.2,58,29.71,10.0,South,15.0,-,N/A,,Mostly Cloudy,190,2012-10-15 07:55:00
3:15 AM,55.4,39.2,54,29.71,10.0,SSW,12.7,-,N/A,,Mostly Cloudy,200,2012-10-15 08:15:00
3:35 AM,55.4,37.4,51,29.69,10.0,South,12.7,16.1,N/A,,Overcast,190,2012-10-15 08:35:00
3:55 AM,55.4,37.4,51,29.69,10.0,SSW,15.0,-,N/A,,Mostly Cloudy,200,2012-10-15 08:55:00
4:15 AM,55.4,37.4,51,29.67,10.0,South,15.0,-,N/A,,Mostly Cloudy,190,2012-10-15 09:15:00
4:35 AM,55.4,37.4,51,29.67,10.0,South,12.7,18.4,N/A,,Overcast,190,2012-10-15 09:35:00
4:55 AM,55.4,37.4,51,29.66,10.0,South,15.0,-,N/A,,Mostly Cloudy,190,2012-10-15 09:55:00
5:15 AM,55.4,37.4,51,29.65,10.0,SSW,12.7,18.4,N/A,,Scattered Clouds,200,2012-10-15 10:15:00
5:35 AM,53.6,39.2,58,29.65,10.0,South,12.7,-,N/A,,Mostly Cloudy,190,2012-10-15 10:35:00
5:55 AM,53.6,37.4,54,29.65,10.0,SSW,13.8,-,N/A,,Mostly Cloudy,200,2012-10-15 10:55:00
6:15 AM,53.6,37.4,54,29.63,10.0,SSW,15.0,-,N/A,,Mostly Cloudy,200,2012-10-15 11:15:00
6:35 AM,53.6,37.4,54,29.63,10.0,SSW,13.8,-,N/A,,Scattered Clouds,210,2012-10-15 11:35:00
6:55 AM,51.8,37.4,58,29.62,10.0,SSW,13.8,-,N/A,,Clear,210,2012-10-15 11:55:00
7:15 AM,50.0,37.4,62,29.63,10.0,SSW,11.5,-,N/A,,Clear,210,2012-10-15 12:15:00
7:35 AM,48.2,37.4,66,29.63,10.0,SSW,10.4,-,N/A,,Clear,210,2012-10-15 12:35:00
7:55 AM,48.2,37.4,66,29.62,10.0,SSW,10.4,-,N/A,,Clear,210,2012-10-15 12:55:00
8:15 AM,48.2,37.4,66,29.62,10.0,SSW,11.5,-,N/A,,Clear,210,2012-10-15 13:15:00
8:35 AM,46.4,37.4,71,29.62,10.0,SSW,10.4,-,N/A,,Clear,210,2012-10-15 13:35:00
8:55 AM,48.2,37.4,66,29.62,10.0,SSW,10.4,-,N/A,,Clear,200,2012-10-15 13:55:00
9:15 AM,50.0,39.2,66,29.61,10.0,SW,6.9,-,N/A,,Clear,220,2012-10-15 14:15:00
9:35 AM,55.4,39.2,54,29.61,10.0,SW,12.7,-,N/A,,Clear,230,2012-10-15 14:35:00
9:55 AM,57.2,39.2,51,29.61,0.5,SW,13.8,-,N/A,,Haze,230,2012-10-15 14:55:00
10:15 AM,60.8,39.2,45,29.61,-9999.0,WSW,10.4,19.6,N/A,,Partly Cloudy,250,2012-10-15 15:15:00
10:35 AM,-9999,-9999,N/A,-9999,-9999.0,North,-9999.0,-,N/A,,Unknown,0,2012-10-15 15:35:00
10:55 AM,-9999,-9999,N/A,-9999,-9999.0,North,-9999.0,-,N/A,,Unknown,0,2012-10-15 15:55:00
11:15 AM,-9999,-9999,N/A,-9999,-9999.0,North,-9999.0,-,N/A,,Unknown,0,2012-10-15 16:15:00
11:35 AM,-9999,-9999,N/A,-9999,-9999.0,North,-9999.0,-,N/A,,Unknown,0,2012-10-15 16:35:00
11:55 AM,-9999,-9999,N/A,29.61,-9999.0,West,17.3,-,N/A,,Unknown,270,2012-10-15 16:55:00
12:15 PM,66.2,39.2,37,29.60,10.0,West,13.8,-,N/A,,Unknown,280,2012-10-15 17:15:00
12:35 PM,68.0,39.2,35,29.60,10.0,West,13.8,-,N/A,,Clear,260,2012-10-15 17:35:00
12:55 PM,68.0,39.2,35,29.60,10.0,West,12.7,19.6,N/A,,Clear,270,2012-10-15 17:55:00
1:15 PM,66.2,39.2,37,29.60,10.0,West,15.0,18.4,N/A,,Partly Cloudy,280,2012-10-15 18:15:00
1:35 PM,66.2,39.2,37,29.60,10.0,West,13.8,-,N/A,,Clear,260,2012-10-15 18:35:00
1:55 PM,69.8,39.2,33,29.59,10.0,West,15.0,-,N/A,,Clear,260,2012-10-15 18:55:00
2:35 PM,71.6,39.2,31,29.58,10.0,WNW,13.8,17.3,N/A,,Clear,290,2012-10-15 19:35:00
2:55 PM,71.6,39.2,31,29.58,10.0,WNW,10.4,-,N/A,,Partly Cloudy,300,2012-10-15 19:55:00
3:15 PM,71.6,39.2,31,29.58,10.0,West,11.5,20.7,N/A,,Clear,280,2012-10-15 20:15:00
3:35 PM,71.6,39.2,31,29.58,10.0,NW,10.4,-,N/A,,Clear,320,2012-10-15 20:35:00
3:55 PM,68.0,39.2,35,29.58,10.0,NW,11.5,-,N/A,,Clear,310,2012-10-15 20:55:00
4:15 PM,71.6,39.2,31,29.58,10.0,WNW,12.7,16.1,N/A,,Clear,290,2012-10-15 21:15:00
4:35 PM,69.8,39.2,33,29.58,10.0,West,10.4,-,N/A,,Clear,280,2012-10-15 21:35:00
4:55 PM,71.6,37.4,29,29.58,10.0,West,12.7,-,N/A,,Clear,280,2012-10-15 21:55:00
5:15 PM,68.0,37.4,33,29.58,10.0,NW,12.7,-,N/A,,Clear,320,2012-10-15 22:15:00
5:35 PM,66.2,37.4,35,29.58,10.0,WNW,12.7,-,N/A,,Clear,300,2012-10-15 22:35:00
5:55 PM,66.2,37.4,35,29.58,10.0,WNW,9.2,-,N/A,,Clear,300,2012-10-15 22:55:00
6:15 PM,64.4,37.4,37,29.58,10.0,West,8.1,-,N/A,,Clear,280,2012-10-15 23:15:00
6:35 PM,62.6,37.4,39,29.59,10.0,West,9.2,-,N/A,,Clear,270,2012-10-15 23:35:00
6:55 PM,60.8,37.4,42,29.59,10.0,West,9.2,-,N/A,,Clear,270,2012-10-15 23:55:00
7:15 PM,59.0,37.4,45,29.60,10.0,West,9.2,-,N/A,,Clear,270,2012-10-16 00:15:00
7:35 PM,55.4,37.4,51,29.60,10.0,WNW,6.9,-,N/A,,Clear,300,2012-10-16 00:35:00
7:55 PM,53.6,37.4,54,29.61,10.0,NW,6.9,-,N/A,,Clear,320,2012-10-16 00:55:00
8:15 PM,53.6,37.4,54,29.61,10.0,WNW,8.1,-,N/A,,Clear,300,2012-10-16 01:15:00
8:35 PM,53.6,37.4,54,29.62,10.0,NNW,8.1,-,N/A,,Clear,330,2012-10-16 01:35:00
8:55 PM,50.0,37.4,62,29.62,10.0,NW,8.1,-,N/A,,Clear,320,2012-10-16 01:55:00
9:15 PM,48.2,37.4,66,29.62,10.0,NW,5.8,-,N/A,,Clear,310,2012-10-16 02:15:00
9:35 PM,46.4,35.6,66,29.62,10.0,WNW,6.9,-,N/A,,Clear,290,2012-10-16 02:35:00
9:55 PM,44.6,37.4,76,29.62,10.0,WNW,9.2,-,N/A,,Clear,300,2012-10-16 02:55:00
10:15 PM,46.4,39.2,76,29.63,10.0,WNW,10.4,-,N/A,,Clear,290,2012-10-16 03:15:00
10:35 PM,44.6,37.4,76,29.64,10.0,WNW,9.2,-,N/A,,Partly Cloudy,300,2012-10-16 03:35:00
10:55 PM,44.6,37.4,76,29.63,10.0,WSW,4.6,-,N/A,,Partly Cloudy,250,2012-10-16 03:55:00
11:15 PM,42.8,37.4,81,29.63,10.0,West,5.8,-,N/A,,Clear,280,2012-10-16 04:15:00
11:35 PM,41.0,35.6,81,29.63,10.0,West,3.5,-,N/A,,Clear,270,2012-10-16 04:35:00
11:55 PM,39.2,35.6,87,29.62,10.0,WSW,4.6,-,N/A,,Clear,250,2012-10-16 04:55:00